Date String (YYYY-MM-DD hh:mm:ss) UTC,Instrument flags,absolute air pressure of the measurement (hPa),sample flow rate (lpm),inlet stack bypass flow (lpm),air temperature of the measurement (°C),ambient temperature measured by the external sensor (°C),aerosol sample conditioner tube jacket temperature (°C),OPC LED temperature (°C),internal box temperature (°C),relative humidity of the measurement (%),span deviation,mass concentration of particles derived from Lorenz-Mie calculation of OPC scattering (μg/m³),mass concentration of particles derived from Lorenz-Mie calculation of OPC scattering (μg/m³),mass concentration of particles derived from Lorenz-Mie calculation of OPC scattering (μg/m³)
DateTimeUTC,F1_M11,P_M11,Q1_M11,Q2_M11,T1_M11,T2_M11,T3_M11,T4_M11,T5_M11,U1_M11,ZSPAN_M11,X0_M11,X2_M11,X1_M11
2023-08-09 21:00:00,SystemResetWarning,0830.2,5.00,000.00,029.0,027.4,000.0,037.4,030.8,23.6,0000.0,0011.61,0005.50,0004.94
2023-08-09 21:01:00,SystemResetWarning,0830.3,4.99,000.00,029.1,027.7,000.0,037.4,030.9,24.3,0000.0,0011.31,0005.51,0004.94
2023-08-09 21:02:00,SystemResetWarning,0830.3,5.00,000.00,029.1,027.9,000.0,037.5,030.9,23.6,0000.0,0011.13,0005.49,0004.94
2023-08-09 21:03:00,SystemResetWarning,0830.3,5.00,000.00,029.2,028.0,000.0,037.5,031.0,24.1,0000.0,0011.22,0005.50,0004.94
2023-08-09 21:04:00,SystemResetWarning,0830.2,4.98,000.00,029.2,026.7,000.0,037.4,030.8,23.9,0000.0,0011.21,0005.47,0004.93
2023-08-09 21:05:00,SystemResetWarning,0830.2,5.00,000.00,029.1,025.1,000.0,037.3,030.4,23.5,0000.0,0011.65,0005.48,0004.92
2023-08-09 21:06:00,SystemResetWarning,0830.3,5.01,000.00,029.0,024.9,000.0,037.2,030.3,23.8,0000.0,0012.19,0005.51,0004.92
2023-08-09 21:07:00,SystemResetWarning,0830.3,5.01,000.00,028.9,025.2,000.0,037.2,030.2,23.9,0000.0,0013.02,0005.51,0004.93
2023-08-09 21:08:00,SystemResetWarning,0830.3,5.00,000.00,028.9,025.6,000.0,037.3,030.3,24.1,0000.3,0012.31,0005.49,0004.92
2023-08-09 21:09:00,SystemResetWarning,0830.2,5.00,000.00,028.9,026.1,000.0,037.3,030.4,24.6,0000.2,0011.50,0005.45,0004.91
2023-08-09 21:10:00,SystemResetWarning,0830.2,5.00,000.00,028.9,026.5,000.0,037.3,030.6,23.9,0000.0,0011.42,0005.44,0004.91
2023-08-09 21:11:00,SystemResetWarning,0830.3,5.00,000.00,029.0,026.9,000.0,037.4,030.7,23.6,0000.0,0011.16,0005.41,0004.92
2023-08-09 21:12:00,SystemResetWarning,0830.2,5.00,000.00,029.0,027.2,000.0,037.4,030.7,23.5,0000.2,0011.13,0005.41,0004.92
2023-08-09 21:13:00,SystemResetWarning,0830.2,5.00,000.00,029.0,027.5,000.0,037.4,030.8,23.4,0000.0,0011.23,0005.41,0004.91
2023-08-09 21:14:00,SystemResetWarning,0830.2,5.00,000.00,029.1,027.7,000.0,037.5,030.9,23.4,0000.0,0012.47,0005.43,0004.91
2023-08-09 21:15:00,SystemResetWarning,0830.2,5.00,000.00,029.1,027.9,000.0,037.5,031.0,23.1,0000.0,0013.38,0005.44,0004.91
2023-08-09 21:16:00,SystemResetWarning,0830.2,4.99,000.00,029.2,027.9,000.0,037.5,031.0,23.1,0000.0,0013.23,0005.43,0004.92
2023-08-09 21:17:00,SystemResetWarning,0830.1,4.99,000.00,029.2,026.3,000.0,037.4,030.7,23.4,0000.0,0012.35,0005.40,0004.92
2023-08-09 21:18:00,SystemResetWarning,0830.2,5.00,000.00,029.1,024.9,000.0,037.3,030.4,23.8,0000.0,0011.62,0005.46,0004.93
2023-08-09 21:19:00,SystemResetWarning,0830.1,5.01,000.00,029.0,024.9,000.0,037.2,030.3,23.5,0000.0,0011.51,0005.49,0004.94
2023-08-09 21:20:00,SystemResetWarning,0830.0,5.01,000.00,028.9,025.3,000.0,037.3,030.3,23.4,0000.0,0011.59,0005.52,0004.94
2023-08-09 21:21:00,SystemResetWarning,0830.0,4.99,000.00,028.9,025.7,000.0,037.3,030.4,23.8,0000.0,0011.62,0005.49,0004.91
2023-08-09 21:22:00,SystemResetWarning,0830.0,5.00,000.00,028.9,026.2,000.0,037.3,030.5,24.6,0000.0,0012.39,0005.48,0004.90
2023-08-09 21:23:00,SystemResetWarning,0830.0,5.01,000.00,028.9,026.6,000.0,037.4,030.6,24.4,0000.0,0012.74,0005.46,0004.90
2023-08-09 21:24:00,SystemResetWarning,0830.0,4.99,000.00,029.0,027.0,000.0,037.4,030.7,24.1,0000.0,0012.89,0005.48,0004.90
2023-08-09 21:25:00,SystemResetWarning,0830.1,4.99,000.00,029.0,027.3,000.0,037.4,030.8,24.0,0000.0,0012.16,0005.47,0004.89
2023-08-09 21:26:00,SystemResetWarning,0830.1,5.00,000.00,029.1,027.6,000.0,037.4,030.8,23.7,0000.0,0011.15,0005.48,0004.89
2023-08-09 21:27:00,SystemResetWarning,0830.1,5.00,000.00,029.1,027.8,000.0,037.5,030.9,23.5,0000.0,0011.77,0005.48,0004.88
2023-08-09 21:28:00,SystemResetWarning,0830.0,5.00,000.00,029.2,028.0,000.0,037.5,031.0,23.4,0000.0,0011.46,0005.47,0004.87
2023-08-09 21:29:00,SystemResetWarning,0830.0,5.00,000.00,029.2,027.7,000.0,037.5,031.0,23.1,0000.0,0011.19,0005.41,0004.85
2023-08-09 21:30:00,SystemResetWarning,0830.0,4.99,000.00,029.2,025.9,000.0,037.4,030.7,23.0,0000.0,0011.16,0005.41,0004.85
2023-08-09 21:31:00,SystemResetWarning,0830.0,5.01,000.00,029.1,024.9,000.0,037.3,030.5,23.2,0000.0,0011.11,0005.40,0004.84
2023-08-09 21:32:00,SystemResetWarning,0830.0,5.01,000.00,029.0,025.0,000.0,037.2,030.4,23.3,0000.0,0011.06,0005.41,0004.85
2023-08-09 21:33:00,SystemResetWarning,0830.0,4.99,000.00,029.0,025.4,000.0,037.3,030.3,23.1,0000.0,0010.44,0005.43,0004.84
2023-08-09 21:34:00,SystemResetWarning,0830.0,5.00,000.00,028.9,025.9,000.0,037.3,030.4,23.5,0000.0,0010.02,0005.44,0004.85
2023-08-09 21:35:00,SystemResetWarning,0830.0,5.00,000.00,029.0,026.3,000.0,037.4,030.5,24.5,0000.0,0010.46,0005.45,0004.85
2023-08-09 21:36:00,SystemResetWarning,0830.0,5.01,000.00,029.0,026.7,000.0,037.4,030.7,24.1,0000.0,0010.28,0005.45,0004.86
2023-08-09 21:37:00,SystemResetWarning,0830.0,4.99,000.00,029.0,027.1,000.0,037.4,030.8,23.5,0000.0,0010.16,0005.44,0004.87
2023-08-09 21:38:00,SystemResetWarning,0830.0,5.00,000.00,029.1,027.4,000.0,037.4,030.8,23.4,0000.0,0009.37,0005.42,0004.87
2023-08-09 21:39:00,SystemResetWarning,0830.0,5.01,000.00,029.1,027.7,000.0,037.5,030.9,23.1,0000.0,0009.30,0005.41,0004.88
2023-08-09 21:40:00,SystemResetWarning,0830.0,4.99,000.00,029.2,027.9,000.0,037.5,031.0,23.4,0000.0,0009.61,0005.41,0004.88
2023-08-09 21:41:00,SystemResetWarning,0830.0,4.99,000.00,029.2,027.2,000.0,037.4,030.9,23.0,0000.0,0009.95,0005.38,0004.86
2023-08-09 21:42:00,SystemResetWarning,0830.0,5.00,000.00,029.1,025.4,000.0,037.3,030.6,23.0,0000.0,0010.14,0005.38,0004.85
2023-08-09 21:43:00,SystemResetWarning,0830.0,5.00,000.00,029.1,024.8,000.0,037.2,030.4,23.0,0000.0,0010.30,0005.40,0004.86
2023-08-09 21:44:00,SystemResetWarning,0830.0,5.01,000.00,029.0,025.1,000.0,037.2,030.3,23.0,0000.0,0010.42,0005.41,0004.86
2023-08-09 21:45:00,SystemResetWarning,0830.0,5.00,000.00,028.9,025.5,000.0,037.3,030.3,23.2,0000.0,0010.49,0005.40,0004.85
2023-08-09 21:46:00,SystemResetWarning,0830.0,5.00,000.00,028.9,026.0,000.0,037.3,030.4,23.2,0000.0,0010.05,0005.39,0004.85
2023-08-09 21:47:00,SystemResetWarning,0829.9,5.00,000.00,028.9,026.4,000.0,037.3,030.6,23.5,0000.0,0010.19,0005.37,0004.84
2023-08-09 21:48:00,SystemResetWarning,0830.0,4.99,000.00,029.0,026.8,000.0,037.4,030.7,24.3,0000.0,0010.50,0005.40,0004.83
2023-08-09 21:49:00,SystemResetWarning,0829.9,5.00,000.00,029.0,027.2,000.0,037.4,030.7,23.6,0000.0,0011.10,0005.41,0004.82
2023-08-09 21:50:00,SystemResetWarning,0829.9,5.00,000.00,029.0,027.5,000.0,037.4,030.8,23.1,0000.0,0011.20,0005.44,0004.82
2023-08-09 21:51:00,SystemResetWarning,0829.9,5.01,000.00,029.1,027.7,000.0,037.4,030.9,23.3,0000.0,0011.14,0005.46,0004.81
2023-08-09 21:52:00,SystemResetWarning,0829.9,4.99,000.00,029.1,027.9,000.0,037.5,030.9,22.9,0000.0,0010.79,0005.45,0004.81
2023-08-09 21:53:00,SystemResetWarning,0829.9,4.99,000.00,029.2,026.7,000.0,037.4,030.8,22.9,0000.0,0011.03,0005.42,0004.82
2023-08-09 21:54:00,SystemResetWarning,0829.8,5.01,000.00,029.1,025.8,000.0,037.3,030.6,23.2,0000.0,0010.89,0005.37,0004.81
2023-08-09 21:55:00,SystemResetWarning,0829.8,5.01,000.00,029.1,025.9,000.0,037.3,030.5,23.2,0000.0,0010.90,0005.33,0004.80
2023-08-09 21:56:00,SystemResetWarning,0829.9,5.00,000.00,029.0,026.2,000.0,037.3,030.5,23.3,0000.0,0011.40,0005.29,0004.80
2023-08-09 21:57:00,SystemResetWarning,0829.8,5.00,000.00,029.0,026.6,000.0,037.4,030.6,23.4,0000.0,0011.28,0005.31,0004.80
2023-08-09 21:58:00,SystemResetWarning,0829.9,5.00,000.00,029.1,026.9,000.0,037.4,030.7,22.9,0000.0,0011.04,0005.31,0004.81
2023-08-09 21:59:00,SystemResetWarning,0829.9,5.00,000.00,029.1,027.3,000.0,037.4,030.8,22.6,0000.0,0011.08,0005.29,0004.82
